Location: Malvern Link
(52.1333°N, 2.3000°W)
Time: 07:31:41
(UTC+00:00)

CAS-6 - Visible Passes

Search period start: 25 June 2022 00:00
Search period end: 05 July 2022 00:00
Orbit: 613 x 635 km, 97.9° (Epoch: 24 June)

Date Brightness Start Highest point End Pass type
(mag) Time Alt. Az. Time Alt. Az. Time Alt. Az.
25 Jun ? 21:24:57 10° SE 21:28:55 35° ENE 21:32:53 10° N visible
25 Jun ? 23:01:37 12° SSW 23:05:08 32° W 23:09:05 10° NNW visible
26 Jun ? 21:43:02 10° SE 21:47:16 49° ENE 21:51:29 10° N visible
26 Jun ? 23:20:16 10° SW 23:23:43 23° W 23:27:11 10° NW visible
27 Jun ? 22:01:40 12° SSE 22:05:39 73° ENE 22:10:00 10° N visible
27 Jun ? 23:39:41 10° SW 23:42:21 16° W 23:45:00 10° NW visible
28 Jun ? 22:20:19 14° S 22:24:05 77° WSW 22:28:27 10° NNW visible
29 Jun ? 00:00:06 10° W 00:01:01 11° W 00:01:58 10° WNW visible
29 Jun ? 22:38:58 14° S 22:42:33 52° W 22:46:49 10° NNW visible
30 Jun ? 21:21:03 10° SE 21:24:55 32° ENE 21:28:47 10° N visible
30 Jun ? 22:57:36 13° SSW 23:01:04 35° W 23:05:05 10° NNW visible
01 Jul ? 21:39:05 10° SE 21:43:14 45° ENE 21:47:24 10° N visible
01 Jul ? 23:16:15 11° SSW 23:19:38 24° W 23:23:12 10° NW visible
02 Jul ? 21:57:39 12° SSE 22:01:36 67° ENE 22:05:56 10° N visible
02 Jul ? 23:35:24 10° SW 23:38:15 17° W 23:41:06 10° NW visible
03 Jul ? 22:16:18 14° SSE 22:20:02 84° WSW 22:24:23 10° NNW visible
03 Jul ? 23:55:25 10° WSW 23:56:55 12° W 23:58:24 10° WNW visible
04 Jul ? 22:34:57 15° S 22:38:29 56° W 22:42:46 10° NNW visible
